Total_Precipitation_Accumulation
0.00 0.00 0.00 0.00 0.00 0.00 0.00 0.00 0.00 0.00 0.00 0.01 0.01 0.01 0.01 0.00 0.01 0.01 0.01 0.01 0.01 0.01 0.01 0.01 0.01 0.03 0.05 0.08 0.11 0.12 0.12 0.13 0.17 0.21 0.20 0.20 0.23 0.27 0.26 0.25 0.28 0.32 0.35
0.00 0.00 0.00 0.00 0.00 0.00 0.00 0.00 0.00 0.00 0.00 0.00 0.00 0.00 0.00 0.00 0.00 0.01 0.01 0.01 0.01 0.01 0.01 0.01 0.01 0.01 0.01 0.01 0.02 0.04 0.06 0.06 0.08 0.16 0.20 0.17 0.15 0.16 0.17 0.18 0.22 0.28 0.35
0.00 0.00 0.00 0.00 0.00 0.00 0.00 0.00 0.00 0.00 0.00 0.00 0.00 0.00 0.00 0.00 0.00 0.01 0.01 0.01 0.00 0.00 0.01 0.01 0.01 0.01 0.01 0.01 0.01 0.02 0.03 0.04 0.04 0.08 0.23 0.33 0.24 0.16 0.12 0.14 0.16 0.19 0.21
0.00 0.00 0.00 0.00 0.00 0.00 0.00 0.00 0.00 0.00 0.00 0.00 0.00 0.00 0.01 0.01 0.01 0.00 0.00 0.00 0.00 0.00 0.00 0.00 0.01 0.01 0.01 0.01 0.02 0.02 0.03 0.05 0.06 0.06 0.11 0.21 0.26 0.32 0.21 0.07 0.06 0.08 0.10
0.00 0.00 0.00 0.00 0.00 0.00 0.00 0.00 0.00 0.00 0.00 0.00 0.00 0.00 0.00 0.00 0.00 0.00 0.00 0.00 0.00 0.00 0.00 0.01 0.01 0.01 0.01 0.02 0.02 0.02 0.03 0.05 0.08 0.10 0.11 0.10 0.12 0.21 0.35 0.17 0.03 0.03 0.05
0.00 0.00 0.00 0.00 0.00 0.00 0.00 0.00 0.00 0.00 0.00 0.00 0.00 0.00 0.00 0.00 0.00 0.00 0.00 0.00 0.00 0.00 0.01 0.01 0.01 0.02 0.02 0.02 0.03 0.04 0.05 0.06 0.08 0.10 0.13 0.18 0.22 0.21 0.29 0.27 0.11 0.06 0.03
0.00 0.00 0.00 0.00 0.00 0.00 0.00 0.00 0.00 0.00 0.00 0.00 0.00 0.00 0.00 0.00 0.00 0.00 0.00 0.00 0.00 0.01 0.01 0.02 0.02 0.03 0.04 0.04 0.05 0.07 0.08 0.09 0.11 0.12 0.14 0.16 0.19 0.22 0.28 0.32 0.22 0.12 0.06
0.00 0.00 0.00 0.00 0.00 0.00 0.00 0.00 0.00 0.00 0.00 0.00 0.00 0.00 0.00 0.01 0.00 0.00 0.00 0.01 0.01 0.01 0.02 0.03 0.04 0.05 0.06 0.07 0.09 0.11 0.12 0.13 0.15 0.15 0.16 0.18 0.17 0.20 0.26 0.34 0.39 0.30 0.11
0.00 0.00 0.00 0.00 0.00 0.00 0.00 0.00 0.00 0.00 0.00 0.00 0.00 0.00 0.00 0.00 0.00 0.00 0.01 0.01 0.02 0.03 0.04 0.06 0.08 0.10 0.11 0.12 0.13 0.15 0.17 0.18 0.20 0.21 0.21 0.23 0.21 0.21 0.23 0.28 0.40 0.56 0.43
0.00 0.00 0.00 0.00 0.00 0.00 0.00 0.00 0.00 0.00 0.01 0.00 0.01 0.01 0.01 0.01 0.01 0.01 0.02 0.03 0.04 0.05 0.06 0.07 0.10 0.13 0.15 0.17 0.19 0.21 0.22 0.25 0.28 0.29 0.29 0.29 0.29 0.28 0.27 0.28 0.31 0.43 0.58
0.00 0.00 0.00 0.00 0.00 0.00 0.00 0.00 0.01 0.01 0.01 0.01 0.01 0.02 0.02 0.03 0.03 0.04 0.05 0.07 0.08 0.09 0.09 0.09 0.10 0.12 0.14 0.17 0.21 0.25 0.30 0.33 0.34 0.35 0.37 0.38 0.38 0.38 0.36 0.36 0.36 0.38 0.52
0.00 0.00 0.00 0.00 0.00 0.00 0.00 0.01 0.02 0.03 0.04 0.03 0.03 0.04 0.04 0.06 0.09 0.11 0.12 0.13 0.14 0.14 0.14 0.13 0.13 0.13 0.14 0.17 0.19 0.23 0.27 0.33 0.37 0.39 0.43 0.44 0.44 0.46 0.46 0.47 0.45 0.43 0.46
0.00 0.00 0.00 0.00 0.00 0.01 0.01 0.02 0.03 0.05 0.04 0.04 0.05 0.06 0.09 0.12 0.16 0.19 0.20 0.20 0.20 0.20 0.19 0.19 0.20 0.20 0.24 0.28 0.28 0.27 0.29 0.32 0.35 0.37 0.42 0.47 0.53 0.57 0.55 0.56 0.54 0.49 0.43
0.00 0.00 0.00 0.00 0.01 0.01 0.02 0.03 0.05 0.06 0.07 0.09 0.11 0.14 0.18 0.22 0.25 0.26 0.25 0.23 0.23 0.24 0.24 0.24 0.26 0.30 0.38 0.52 0.55 0.45 0.41 0.38 0.37 0.37 0.41 0.47 0.56 0.64 0.69 0.74 0.65 0.57 0.58
0.00 0.01 0.01 0.01 0.02 0.02 0.03 0.06 0.09 0.12 0.16 0.20 0.23 0.23 0.22 0.22 0.22 0.22 0.22 0.23 0.25 0.27 0.26 0.25 0.26 0.32 0.47 0.79 0.83 0.66 0.53 0.46 0.44 0.42 0.44 0.48 0.60 0.77 0.93 1.03 0.96 0.89 0.88
0.01 0.01 0.02 0.03 0.04 0.06 0.09 0.14 0.20 0.23 0.25 0.27 0.27 0.25 0.22 0.21 0.21 0.22 0.22 0.23 0.23 0.21 0.18 0.17 0.22 0.31 0.48 0.87 0.93 0.76 0.54 0.48 0.48 0.48 0.43 0.41 0.47 0.56 0.70 0.90 0.96 1.00 1.05
0.03 0.04 0.05 0.07 0.09 0.13 0.18 0.22 0.24 0.24 0.26 0.28 0.28 0.26 0.24 0.23 0.21 0.20 0.18 0.18 0.16 0.13 0.11 0.09 0.12 0.19 0.36 0.73 0.83 0.69 0.47 0.38 0.39 0.39 0.35 0.33 0.33 0.36 0.36 0.45 0.52 0.60 0.74
0.07 0.09 0.11 0.12 0.15 0.20 0.24 0.27 0.26 0.26 0.26 0.25 0.23 0.19 0.16 0.15 0.14 0.14 0.13 0.11 0.10 0.08 0.07 0.05 0.06 0.08 0.16 0.50 0.74 0.59 0.33 0.28 0.30 0.31 0.33 0.34 0.32 0.31 0.36 0.43 0.44 0.42 0.46
0.07 0.08 0.08 0.09 0.13 0.19 0.22 0.23 0.21 0.20 0.17 0.15 0.12 0.09 0.07 0.07 0.08 0.08 0.07 0.06 0.05 0.04 0.03 0.03 0.04 0.04 0.08 0.30 0.66 0.63 0.28 0.26 0.25 0.28 0.38 0.42 0.39 0.37 0.46 0.59 0.56 0.42 0.35
0.04 0.04 0.04 0.04 0.07 0.10 0.12 0.12 0.12 0.10 0.09 0.07 0.05 0.03 0.02 0.03 0.04 0.04 0.03 0.03 0.02 0.03 0.03 0.03 0.03 0.03 0.05 0.18 0.55 0.75 0.38 0.30 0.25 0.27 0.37 0.56 0.54 0.50 0.52 0.59 0.58 0.51 0.36
0.03 0.02 0.02 0.04 0.07 0.10 0.11 0.10 0.08 0.05 0.03 0.02 0.01 0.01 0.00 0.01 0.01 0.02 0.02 0.02 0.03 0.03 0.03 0.03 0.03 0.03 0.04 0.08 0.34 0.76 0.65 0.44 0.36 0.35 0.42 0.54 0.52 0.50 0.50 0.54 0.53 0.52 0.48
0.02 0.02 0.03 0.05 0.10 0.12 0.10 0.06 0.04 0.01 0.00 0.00 0.00 0.00 0.00 0.01 0.01 0.02 0.02 0.03 0.03 0.04 0.04 0.05 0.04 0.03 0.03 0.07 0.22 0.51 0.67 0.58 0.42 0.39 0.35 0.41 0.42 0.45 0.47 0.45 0.46 0.47 0.49
0.02 0.04 0.05 0.08 0.11 0.09 0.05 0.02 0.01 0.00 0.00 0.00 0.00 0.01 0.01 0.01 0.02 0.02 0.03 0.04 0.04 0.07 0.09 0.09 0.08 0.05 0.04 0.07 0.20 0.30 0.35 0.42 0.37 0.40 0.52 0.45 0.38 0.35 0.29 0.26 0.30 0.33 0.34
0.05 0.06 0.07 0.09 0.10 0.06 0.02 0.00 0.00 0.00 0.00 0.01 0.01 0.01 0.01 0.02 0.02 0.03 0.04 0.05 0.08 0.19 0.26 0.22 0.18 0.12 0.10 0.17 0.34 0.35 0.26 0.28 0.32 0.31 0.37 0.36 0.27 0.20 0.15 0.13 0.15 0.18 0.24
0.07 0.08 0.09 0.09 0.07 0.03 0.01 0.00 0.00 0.00 0.01 0.01 0.02 0.02 0.02 0.03 0.03 0.03 0.04 0.07 0.09 0.26 0.45 0.40 0.38 0.36 0.34 0.43 0.65 0.62 0.51 0.50 0.50 0.47 0.44 0.34 0.26 0.22 0.17 0.12 0.10 0.10 0.16
0.11 0.11 0.09 0.05 0.02 0.01 0.00 0.00 0.00 0.01 0.02 0.03 0.03 0.04 0.04 0.04 0.04 0.05 0.05 0.05 0.07 0.14 0.18 0.23 0.33 0.32 0.43 0.54 0.52 0.47 0.46 0.46 0.47 0.50 0.46 0.30 0.21 0.19 0.16 0.14 0.12 0.10 0.11